This demonstration page uses our WeatherBlox Daily Observations layout. Learn more.

Left ArrowRight Arrow

39.51506, -84.39828

Hourly Observations for January 24, 2021

Temp ( °F °C ) Dew Point ( °F °C ) Humidity (%) Winds ( mph kmh ) Pressure ( in mb ) Visibility ( mi km ) Precip ( " mm )
12:15 am 00:15 Mostly Cloudy 26 -3.1 15 -9.5 62 62 ENE 3 6 30.36 1028 10 16.0934 N/A
12:35 am 00:35 Partly Cloudy 27 -2.8 14 -10.1 58 58 E 3 6 30.35 1028 10 16.0934 N/A
12:55 am 00:55 Partly Cloudy 27 -2.7 13 -10.4 56 56 E 5 7 30.35 1028 10 16.0934 N/A
1:15 am 01:15 Cloudy 27 -2.9 15 -9.3 62 62 E 5 7 30.34 1028 10 16.0934 N/A
1:35 am 01:35 Cloudy 27 -2.7 14 -9.9 58 58 E 5 7 30.34 1028 10 16.0934 N/A
1:55 am 01:55 Cloudy 28 -2.4 13 -10.7 53 53 E 5 7 30.34 1027 10 16.0934 N/A
2:15 am 02:15 Cloudy 28 -2.4 13 -10.7 53 53 E 8 13 30.32 1027 10 16.0934 N/A
2:35 am 02:35 Cloudy 28 -2.3 12 -10.9 52 52 E 7 11 30.31 1026 10 16.0934 N/A
2:55 am 02:55 Cloudy 28 -2.2 13 -10.8 52 52 ESE 5 7 30.31 1026 10 16.0934 N/A
3:15 am 03:15 Cloudy 28 -2.1 12 -10.9 51 51 ESE 5 7 30.31 1026 10 16.0934 N/A
3:35 am 03:35 Cloudy 28 -2.1 13 -10.8 52 52 ESE 5 7 30.31 1026 10 16.0934 N/A
3:55 am 03:55 Cloudy 28 -2.1 13 -10.5 53 53 ESE 7 11 30.29 1026 10 16.0934 N/A
4:15 am 04:15 Cloudy 29 -1.9 12 -10.9 51 51 SE 7 11 30.28 1025 10 16.0934 N/A
4:35 am 04:35 Cloudy 29 -1.9 12 -10.9 51 51 ESE 5 7 30.28 1025 10 16.0934 N/A
4:55 am 04:55 Cloudy 29 -1.9 13 -10.7 51 51 E 6 9 30.28 1025 10 16.0934 N/A
5:15 am 05:15 Cloudy 29 -1.8 13 -10.8 51 51 E 5 7 30.28 1025 10 16.0934 N/A
5:35 am 05:35 Cloudy 29 -1.7 13 -10.6 51 51 ESE 6 9 30.27 1025 10 16.0934 N/A
5:55 am 05:55 Cloudy 29 -1.7 13 -10.4 52 52 ENE 6 9 30.25 1024 10 16.0934 N/A
6:15 am 06:15 Cloudy 29 -1.7 13 -10.4 52 52 E 8 13 30.24 1024 10 16.0934 N/A
6:35 am 06:35 Cloudy 29 -1.6 13 -10.5 51 51 E 3 6 30.26 1025 10 16.0934 N/A
6:55 am 06:55 Cloudy 29 -1.6 13 -10.5 51 51 ESE 7 11 30.26 1025 10 16.0934 N/A
7:15 am 07:15 Cloudy 29 -1.6 14 -10 53 53 E 8 13 30.26 1025 10 16.0934 N/A
7:35 am 07:35 Cloudy 29 -1.5 13 -10.4 51 51 ESE 5 7 30.25 1024 10 16.0934 N/A
7:55 am 07:55 Cloudy 29 -1.5 13 -10.5 51 51 SE 6 9 30.26 1025 10 16.0934 N/A
8:15 am 08:15 Cloudy 29 -1.5 13 -10.3 52 52 E 8 13 30.24 1024 10 16.0934 N/A
8:35 am 08:35 Cloudy 29 -1.4 13 -10.4 51 51 SE 5 7 30.24 1024 10 16.0934 N/A
8:55 am 08:55 Cloudy 30 -1.2 13 -10.5 50 50 SE 6 9 30.23 1024 10 16.0934 N/A
9:15 am 09:15 Cloudy 30 -1 13 -10.6 49 49 SE 7 11 30.23 1024 10 16.0934 N/A
9:35 am 09:35 Cloudy 31 -0.8 13 -10.6 48 48 ESE 3 6 30.23 1024 10 16.0934 N/A
9:55 am 09:55 Cloudy 31 -0.8 13 -10.7 47 47 SE 7 11 30.23 1024 10 16.0934 N/A
10:15 am 10:15 Cloudy with Light Snow 31 -0.8 14 -10.2 49 49 ESE 7 11 30.22 1023 10 16.0934 N/A
10:35 am 10:35 Cloudy with Light Snow 29 -1.6 19 -7.4 65 65 SE 9 15 30.21 1023 3 4.82802 N/A
10:55 am 10:55 Cloudy with Light Snow 28 -2.3 22 -5.3 80 80 SE 5 7 30.22 1023 1.75 2.816345 N/A
11:15 am 11:15 Cloudy with Light Snow 28 -2.5 24 -4.2 88 88 SE 3 6 30.23 1024 2 3.21868 N/A
11:35 am 11:35 Cloudy with Light Snow 28 -2.5 25 -4 90 90 SE 5 7 30.22 1023 1.75 2.816345 0.01 0.254
11:55 am 11:55 Cloudy with Light Snow 28 -2.2 25 -3.8 89 89 SE 5 7 30.2 1023 2.5 4.02335 0.01 0.254
12:15 pm 12:15 Cloudy with Light Snow 28 -2 26 -3.6 89 89 SE 7 11 30.18 1022 2.5 4.02335 0.01 0.254
12:35 pm 12:35 Cloudy with Light Snow 29 -1.6 26 -3.5 87 87 SE 7 11 30.16 1021 4 6.43736 0.02 0.508
12:55 pm 12:55 Cloudy 29 -1.4 25 -3.8 84 84 ESE 5 7 30.16 1021 10 16.0934 0.02 0.508
1:15 pm 13:15 Cloudy 30 -1.1 26 -3.6 83 83 SSE 5 7 30.14 1021 10 16.0934 N/A
1:35 pm 13:35 Cloudy 30 -0.9 26 -3.5 83 83 ESE 5 7 30.13 1020 10 16.0934 N/A
1:55 pm 13:55 Cloudy 31 -0.7 26 -3.5 82 82 ESE 6 9 30.11 1020 10 16.0934 N/A
2:15 pm 14:15 Cloudy 31 -0.4 26 -3.4 80 80 ESE 5 7 30.11 1020 10 16.0934 N/A
2:35 pm 14:35 Cloudy 31 -0.4 26 -3.1 82 82 ESE 5 7 30.11 1020 10 16.0934 N/A
2:55 pm 14:55 Cloudy 31 -0.6 27 -2.6 87 87 SE 6 9 30.11 1020 10 16.0934 N/A
3:15 pm 15:15 Cloudy with Mist and Fog 31 -0.8 29 -1.9 92 92 SE 5 7 30.11 1020 5 8.0467 N/A
3:35 pm 15:35 Cloudy with Mist and Fog 30 -0.9 29 -1.6 95 95 SE 3 6 30.12 1020 7 11.26538 N/A
3:55 pm 15:55 Cloudy 31 -0.8 29 -1.5 95 95 SE 3 6 30.11 1020 10 16.0934 N/A
4:15 pm 16:15 Cloudy 31 -0.7 29 -1.5 94 94 SSE 3 6 30.11 1020 10 16.0934 N/A
4:35 pm 16:35 Cloudy 31 -0.7 29 -1.5 94 94 SE 3 6 30.11 1020 10 16.0934 N/A
4:55 pm 16:55 Cloudy 31 -0.6 29 -1.4 94 94 N N/A 30.11 1020 10 16.0934 N/A
5:15 pm 17:15 Cloudy with Mist and Fog 31 -0.5 30 -1.2 95 95 N N/A 30.11 1020 5 8.0467 N/A
5:35 pm 17:35 Cloudy with Mist and Fog 31 -0.6 30 -1.1 96 96 N N/A 30.11 1020 3.5 5.63269 N/A
5:55 pm 17:55 Cloudy with Mist and Fog 31 -0.5 30 -0.9 97 97 N N/A 30.11 1020 3 4.82802 N/A
6:15 pm 18:15 Cloudy with Mist and Fog 31 -0.7 31 -0.8 99 99 N N/A 30.12 1020 3.5 5.63269 N/A
6:35 pm 18:35 Cloudy with Mist and Fog 31 -0.7 31 -0.7 100 100 N N/A 30.12 1020 3 4.82802 N/A
6:55 pm 18:55 Cloudy with Mist and Fog 30 -1 30 -1 100 100 N N/A 30.13 1020 3 4.82802 N/A
7:15 pm 19:15 Cloudy with Mist and Fog 30 -1 N/A N/A N N/A 30.13 1020 3 4.82802 N/A
7:35 pm 19:35 Cloudy with Mist and Fog 30 -1 N/A N/A N N/A 30.13 1020 2.5 4.02335 N/A
7:55 pm 19:55 Cloudy with Mist and Fog 32 undefined N/A N/A N N/A 30.12 1020 2.5 4.02335 N/A
8:15 pm 20:15 Cloudy with Mist and Fog 30 -1 N/A N/A N N/A 30.12 1020 3 4.82802 N/A
8:35 pm 20:35 Cloudy with Mist and Fog 30 -1 N/A N/A N N/A 30.12 1020 3.5 5.63269 N/A
8:55 pm 20:55 Cloudy with Mist and Fog 30 -1 N/A N/A SSE 5 7 30.1 1019 4 6.43736 N/A
9:15 pm 21:15 Cloudy with Mist and Fog 30 -1 N/A N/A NNW 3 6 30.13 1020 3 4.82802 N/A
9:35 pm 21:35 Cloudy with Mist and Fog 30 -1 N/A N/A N 3 6 30.12 1020 3 4.82802 N/A
9:55 pm 21:55 Cloudy with Mist and Fog 32 undefined N/A N/A N 5 7 30.13 1020 3.5 5.63269 N/A
10:15 pm 22:15 Cloudy with Mist and Fog 32 undefined N/A N/A NNW 3 6 30.13 1020 3.5 5.63269 N/A
10:35 pm 22:35 Cloudy with Mist and Fog 32 undefined N/A N/A N N/A 30.13 1020 3.5 5.63269 N/A
10:55 pm 22:55 Cloudy with Mist and Fog 32 undefined N/A N/A N N/A 30.12 1020 3.5 5.63269 N/A
11:15 pm 23:15 Cloudy with Mist and Fog 32 undefined N/A N/A N N/A 30.12 1020 3.5 5.63269 N/A
11:35 pm 23:35 Cloudy with Mist and Fog 32 undefined N/A N/A N N/A 30.13 1020 4 6.43736 N/A
11:55 pm 23:55 Cloudy with Mist and Fog 32 undefined N/A N/A N N/A 30.13 1020 3.5 5.63269 N/A

Powered by AerisWeather